STARLINK-3320 (50839 NORAD) Tracking and Keplerian Element Data

This shows tracking and keplerian element data for the satellite.

Feedback or suggestion? Click here.




ElementValue
Catalog50839
NameSTARLINK-3320
Epoch Orbit382
Epoch Day22.91667824
Epoch Year2022
RAAN119.7475
Inclination53.2175
Eccentricity0.00011
Argument of Perigee61.2027
Mean Anonmoly260.1707
Mean Motion15.75394744
Decay Rate-0.00821288
L11 50839U 22001AN 22022.91667824 -.00821288 00000+0 -58554-2 0 9990
L22 50839 53.2175 119.7475 0001100 61.2027 260.1707 15.75394744 3829

Live tracking and technical data element details for STARLINK-3320 (NORAD 50839). STARLINK-3320 can be tracked NOW for your location showing map with azimuth and elevation plus other details from your city location.

Track the satellite on the map from your city or location and see movement details for azimuth, elevation, latitude, longitude, range, height, and movement on the map or in text.







IsCatalogInMostPopularTable: catalog: 50839, numindb: 3
Update: records affected: 1



GetName: 50839 STARLINK-3320

Hit Count: updated at: Mon, 24 Jan 2022 01:27:30 GMT